{"data":{"norad_id":49052,"epoch":"2026-05-25T03:04:38.623584Z","epoch_age_seconds":70759,"freshness":"FRESH","line1":"1 49052U 21068A   26145.12822481  .00005046  00000+0  31905-3 0  9998","line2":"2 49052  37.0241  42.3760 0002987 357.1351   2.9377 15.08876275263796","mean_motion":15.08876275,"eccentricity":0.0002987,"inclination_deg":37.0241,"raan_deg":42.376,"arg_perigee_deg":357.1351,"mean_anomaly_deg":2.9377,"bstar":0.00031905,"rev_number":26379,"period_min":95.435260256842,"perigee_km":537.56617526896,"apogee_km":541.69885077604,"semimajor_km":6917.7695130225,"source":"CELESTRAK","updated_at":"2026-05-25T13:37:57.049816Z"}}